Find Starlink 35244

NORAD ID: 65829 Int'l Des: 2025-221 Owner: SPXS Country: US Constellation: starlink operational
LEOCIRCULAR

当前视图

正在加载3D地球...

About Starlink 35244

Starlink 35244 (NORAD 65829) is a starlink constellation satellite (v2 mini) launched Sep 29, 2025 by SPXS of US. It operates in LEO, CIRCULAR orbit with a mass of 575.00 kg.

即将过境

Passes for default location (London). Set your location on the main map for personalized predictions.

高度历史

Loading altitude history...

两行轨道根数

1 65829U 25221G 26263.26942982 .00013176 00000-0 43541-3 0 9991
2 65829 53.1600 266.0598 0001240 77.1947 282.9193 15.31715173 55812
Epoch: Sep 20, 2026 • Age: 20 hours

当前状态

高度 472.6 km
远地点 / 近地点 N/A
速度 7.63 km/s
星下点 -5.47°S, 55.33°E
发射日期 Sep 29, 2025
运行时间 0.9 years
类型 internet

技术详情

分类 Payload
质量 575.00 kg
干质量 530.00 kg
长度 0.30 m
跨度 29.00 m
形状 ? Box + pan
制造商 SPXS
平台类型 Starlink V2MO
阶段状态 In Orbit
所有者/国家 SPXS/US

Most Searched